Location: Unspecified
(0.0000°N, 0.0000°E)
Time: 18:52:36
(UTC+00:00)

Explorer 27 - Visible Passes

Search period start: 17 May 2026 00:00
Search period end: 27 May 2026 00:00
Orbit: 933 x 1294 km, 41.2° (Epoch: 17 May)

Date Brightness Start Highest point End Pass type
(mag) Time Alt. Az. Time Alt. Az. Time Alt. Az.
17 May 10.6 04:29:30 10° N 04:33:05 16° NE 04:36:44 10° ENE visible
17 May 10.8 19:53:46 10° W 19:59:11 20° NW 20:04:24 10° N visible
18 May 10.4 19:07:39 10° W 19:14:21 28° NW 19:20:45 10° NNE visible
19 May 9.0 04:51:32 10° NNW 04:57:29 47° NE 05:03:36 10° ESE visible
19 May 10.0 18:22:01 10° WSW 18:29:32 39° NW 18:36:45 10° NNE visible
20 May 9.6 04:07:29 10° NNW 04:12:55 31° NE 04:18:25 10° ESE visible
21 May 10.1 03:23:41 10° N 03:28:18 21° NE 03:32:53 10° E visible
21 May 8.0 05:15:39 10° WNW 05:21:45 59° SW 05:28:04 10° SE visible
21 May 11.0 18:49:37 10° WNW 18:54:04 15° NW 18:58:26 10° N visible
22 May 10.5 02:41:30 12° NNE 02:43:36 14° NE 02:46:44 10° ENE visible
22 May 7.8 04:30:57 10° NW 04:37:12 87° SW 04:43:34 10° SE visible
23 May 8.2 03:49:52 33° NNW 03:52:39 64° NE 03:58:52 10° SE visible
24 May 9.3 03:09:59 34° E 03:09:59 34° E 03:13:58 10° ESE visible
24 May 8.7 04:57:41 16° W 05:01:31 29° SW 05:06:55 10° SSE visible
25 May 8.2 04:17:21 42° SSW 04:17:21 42° SSW 04:22:51 10° SSE visible
26 May 9.6 03:36:42 20° SSE 03:36:42 20° SSE 03:38:34 10° SE visible
